Location: ?????????
(38.0736°N, 23.2119°E)
Time: 06:19:48
(UTC+00:00)

Sich 1 Rocket - Visible Passes

Search period start: 16 July 2024 00:00
Search period end: 26 July 2024 00:00
Orbit: 613 x 650 km, 82.5° (Epoch: 15 July)

Date Brightness Start Highest point End Pass type
(mag) Time Alt. Az. Time Alt. Az. Time Alt. Az.
16 Jul 3.8 18:17:39 10° N 18:22:01 53° E 18:26:24 10° SSE visible
16 Jul 6.5 19:58:03 10° WNW 19:59:36 12° W 20:01:09 10° WSW visible
17 Jul 3.9 18:38:46 10° NNW 18:43:13 71° W 18:47:40 10° S visible
18 Jul 5.3 19:00:18 10° NNW 19:04:17 32° W 19:08:17 10° SSW visible
19 Jul 6.3 19:22:32 10° NW 19:25:14 16° W 19:27:57 10° WSW visible
21 Jul 4.8 18:25:36 10° NNW 18:29:52 44° W 18:34:08 10° SSW visible
22 Jul 6.1 18:47:28 10° NW 18:50:51 21° W 18:54:15 10° SW visible
23 Jul 7.0 19:11:24 10° W 19:11:44 10° W 19:12:04 10° W visible
25 Jul 5.8 18:12:35 10° NNW 18:16:27 28° W 18:20:19 10° SSW visible
